[[[{"header":{"parameterUnit":"kt","parameterCategory":2,"dx":1,"dy":1,"la1":30.253999710083008,"la2":30.299108505249023,"lo1":-89.0895004272461,"lo2":-89.04439544677734,"nx":28,"ny":28,"refTime":"2022-10-11T21:00:00:Z","depth":0,"parameterNumber":1,"parameterNumberName":"U-component_of_WINDS"},"data":[-5.9766,-5.9837,-5.986,-5.9953,-5.999,-6.0057,-6.0089,-6.0133,-6.0174,-6.0258,-6.0311,-6.0344,-6.0395,-6.0465,-6.0524,-6.0538,-6.056,-6.0568,-6.0582,-6.0524,-6.0518,-6.0511,-6.0494,-6.0574,-6.0574,-6.0637,-6.0637,-6.0638,-5.9722,-5.9759,-5.9815,-5.9885,-5.9933,-5.994,-5.9997,-6.0037,-6.0097,-6.0149,-6.0202,-6.0279,-6.0343,-6.0393,-6.0459,-6.0494,-6.05,-6.051,-6.0506,-6.0513,-6.0454,-6.0435,-6.0503,-6.0503,-6.0503,-6.0503,-6.0503,-6.0503,-5.9648,-5.969,-5.9746,-5.9807,-5.9849,-5.9896,-5.994,-5.9978,-6.0034,-6.0104,-6.0123,-6.0192,-6.0249,-6.034,-6.0377,-6.0433,-6.0426,-6.0444,-6.0448,-6.0451,-6.045,-6.0352,-6.0446,-6.0446,-6.0446,-6.0445,-6.0445,0,-5.9601,-5.9617,-5.9672,-5.9734,-5.978,-5.9831,-5.9882,-5.991,-5.9954,-5.9999,-6.0065,-6.0107,-6.0192,-6.0257,-6.0325,-6.036,-6.037,-6.0375,-6.0386,-6.0375,-6.0358,-6.0365,-6.0264,-6.0371,-6.037,-6.037,-6.0369,-6.0369,-5.9525,-5.9572,-5.9642,-5.9677,-5.971,-5.9768,-5.9807,-5.9842,-5.9882,-5.9951,-5.9987,-6.0053,-6.0107,-6.0211,-6.0254,-6.0318,-6.0323,-6.036,-6.0332,-6.0321,-6.032,-6.0315,-6.032,-6.0364,-6.0364,-6.0365,-6.0365,0,-5.948,-5.9518,-5.9598,-5.9662,-5.968,-5.9728,-5.9783,-5.9827,-5.9859,-5.9924,-5.9942,-5.9991,-6.0056,-6.0095,-6.0177,-6.0195,-6.0274,-6.0279,-6.0254,-6.0256,-6.0292,-6.0287,-6.0406,-6.0423,-6.0344,-6.0345,-6.0346,0,-5.9429,-5.949,-5.9542,-5.9586,-5.9655,-5.9688,-5.9755,-5.9788,-5.9837,-5.9888,-5.9906,-5.9954,-5.9996,-6.005,-6.0076,-6.0149,-6.0165,-6.0182,-6.0187,-6.0178,-6.0175,-6.0197,-6.0191,-6.0202,-6.0201,-6.0201,-6.02,0,-5.9352,-5.9451,-5.9524,-5.9553,-5.9627,-5.9661,-5.9694,-5.9748,-5.9786,-5.9842,-5.9867,-5.993,-5.9964,-6.0014,-6.0046,-6.0025,-6.0136,-6.0114,-6.0153,-6.0152,-6.0172,-6.0169,-6.0269,-6.0199,-6.0199,-6.0199,-6.0199,0,-5.9315,-5.9369,-5.947,-5.9532,-5.9556,-5.9605,-5.9668,-5.9719,-5.9774,-5.9793,-5.9838,-5.9853,-5.992,-5.9895,-5.9989,-5.9952,-5.9985,-6.0008,-6.0011,-6.0016,-5.9985,-6.0032,-6.0126,-6.0136,-6.0025,-6.0024,-6.0023,0,-5.9214,-5.9326,-5.9354,-5.9449,-5.9505,-5.9519,-5.9575,-5.9623,-5.9653,-5.9705,-5.9739,-5.9799,-5.9788,-5.9812,-5.9854,-5.989,-5.9939,-5.9885,-5.9959,-5.9962,-5.994,-6.0028,-6.003,-6.0102,-6.0005,-6.0007,-6.0008,0,-5.914,-5.9229,-5.9244,-5.9277,-5.9345,-5.9393,-5.9457,-5.9522,-5.9555,-5.9609,-5.9662,-5.9749,-5.9744,-5.9783,-5.9801,-5.9843,-5.9907,-5.9831,-5.9833,-5.9841,-6.0,-6.0002,-6.0014,-5.9911,-5.9913,-5.9915,-5.9994,0,-5.9071,-5.9132,-5.9175,-5.9247,-5.929,-5.9352,-5.9389,-5.9429,-5.9442,-5.9471,-5.9551,-5.9601,-5.9668,-5.9693,-5.9706,-5.9789,-5.978,-5.9774,-5.9748,-5.9807,-5.9834,-5.9845,-5.9706,-5.9705,-5.9705,-5.9704,0,0,-5.8964,-5.9051,-5.9078,-5.914,-5.9177,-5.9189,-5.9252,-5.929,-5.9366,-5.9391,-5.9379,-5.9506,-5.9547,-5.964,-5.9662,-5.969,-5.9708,-5.9685,-5.978,-5.9788,-5.9796,-5.9824,-5.9835,-5.9704,-5.9704,-5.9703,-5.9703,0,-5.8945,-5.8985,-5.9047,-5.9087,-5.9147,-5.9174,-5.9189,-5.9251,-5.9272,-5.9351,-5.9359,-5.9412,-5.9514,-5.9555,-5.9589,-5.9676,-5.9678,-5.9695,-5.9728,-5.9774,-5.9783,-5.9791,-5.982,-5.9831,-5.9702,-5.9702,-5.9702,0,-5.8876,-5.8921,-5.8954,-5.9039,-5.9079,-5.9137,-5.912,-5.9182,-5.9225,-5.9234,-5.9312,-5.9344,-5.9403,-5.9487,-5.9527,-5.9515,-5.9649,-5.9614,-5.9618,-5.9622,-5.9669,-5.9679,-5.9688,-5.9564,-5.9563,-5.9563,0,0,-5.8854,-5.891,-5.8968,-5.9038,-5.9062,-5.9103,-5.9138,-5.9153,-5.9204,-5.9225,-5.9265,-5.9316,-5.9375,-5.9413,-5.9471,-5.9558,-5.9572,-5.9595,-5.9602,-5.9607,-5.9614,-5.9662,-5.9672,-5.956,-5.956,-5.956,0,0,-5.8843,-5.8912,-5.8915,-5.9001,-5.9049,-5.911,-5.9152,-5.9157,-5.9212,-5.9208,-5.9237,-5.9252,-5.9332,-5.9363,-5.9326,-5.9462,-5.9437,-5.9446,-5.9437,-5.9446,-5.9453,-5.9442,-5.9314,0,0,0,0,0,-5.8841,-5.8904,-5.8906,-5.8925,-5.9032,-5.911,-5.9123,-5.9148,-5.913,-5.9162,-5.9197,-5.9197,-5.9349,-5.9317,-5.9337,-5.9376,-5.9529,-5.9534,-5.954,-5.9549,-5.9558,-5.9565,0,0,0,0,0,0,-5.8849,-5.8873,-5.8904,-5.8967,-5.8992,-5.9107,-5.9081,-5.909,-5.9127,-5.9125,-5.919,-5.9199,-5.9222,-5.9309,-5.9326,-5.9363,-5.9309,-5.9531,-5.9536,-5.954,-5.9552,-5.9559,-5.9565,0,0,0,0,0,-5.8855,-5.8874,-5.9039,-5.8967,-5.8988,-5.9036,-5.9079,-5.9086,-5.9115,-5.9168,-5.9177,-5.913,-5.9222,-5.9238,-5.9319,-5.9354,-5.9297,-5.9303,-5.9534,-5.9538,-5.9541,-5.9556,0,0,0,0,0,0,-5.886,-5.8882,-5.9044,-5.9051,-5.8944,-5.903,-5.9044,-5.9083,-5.9156,-5.9165,-5.9109,-5.9108,-5.9223,-5.9236,-5.9248,-5.935,-5.9287,-5.9294,-5.9298,-5.9537,-5.954,-5.9542,0,0,0,0,0,0,-5.8871,-5.8888,-5.9048,-5.9018,-5.9022,-5.9024,-5.9037,-5.9109,-5.9157,-5.9093,-5.9094,-5.9108,-5.9205,-5.9234,-5.9244,-5.9356,-5.928,-5.9286,-5.9291,-5.9293,-5.9539,-5.9542,0,0,0,0,0,0,-5.8879,-5.8893,-5.9016,-5.9019,-5.9023,-5.9108,-5.9089,-5.9197,-5.913,-5.9089,-5.9125,-5.9123,-5.9203,-5.9214,-5.9241,-5.9349,-5.9354,-5.928,-5.9285,-5.9288,-5.9289,0,0,0,0,0,0,0,-5.8885,-5.8785,-5.9,-5.9021,-5.9024,-5.912,-5.9122,-5.9124,-5.913,-5.9128,-5.9126,-5.9124,-5.9245,-5.9252,-5.9259,-5.9343,0,0,-5.928,-5.9283,0,0,0,0,0,0,0,0,-5.8779,-5.8783,-5.9,-5.9002,-5.9003,-5.912,-5.9122,-5.9123,-5.9129,-5.9128,-5.9126,-5.9124,-5.9247,-5.9253,-5.9258,0,0,0,0,0,0,0,0,0,0,0,0,0,0,0,-5.9001,-5.9002,0,-5.912,-5.9122,-5.9123,-5.9129,-5.9128,-5.9126,-5.9125,-5.9249,-5.9253,-5.9258,0,0,0,0,0,0,0,0,0,0,0,0,0,0,0,0,0,0,0,0,0,0,0,0,0,0,0,0,0,0,0,0,0,0,0,0,0,0,0,0,0,0,0,0,0,0,0,0,0,0,0,0,0,0,0,0,0,0,0,0,0,0,0,0,0,0,0,0,0]}],[{"header":{"parameterUnit":"kt","parameterCategory":2,"dx":1,"dy":1,"la1":30.253999710083008,"la2":30.299108505249023,"lo1":-89.0895004272461,"lo2":-89.04439544677734,"nx":28,"ny":28,"refTime":"2022-10-11T21:00:00:Z","depth":0,"parameterNumber":2,"parameterNumberName":"V-component_of_WINDS"},"data":[5.4097,5.4232,5.4269,5.4441,5.4503,5.4628,5.4684,5.4761,5.4832,5.4984,5.5079,5.5129,5.5214,5.5336,5.544,5.546,5.5503,5.5526,5.5546,5.5412,5.5396,5.538,5.5352,5.5533,5.5534,5.5682,5.5683,5.5684,5.4002,5.4065,5.4165,5.4288,5.4376,5.4378,5.4475,5.4549,5.4659,5.4746,5.4839,5.4976,5.5089,5.5167,5.5281,5.5346,5.5354,5.5375,5.5373,5.5387,5.5243,5.5213,5.5367,5.5367,5.5367,5.5367,5.5367,5.5367,5.384,5.3918,5.4014,5.4123,5.4194,5.4276,5.4358,5.4418,5.4516,5.4639,5.4663,5.4788,5.4881,5.5035,5.5095,5.5195,5.5178,5.5212,5.5222,5.5231,5.5237,5.5027,5.5215,5.5214,5.5214,5.5214,5.5214,0,5.3733,5.3759,5.3856,5.3966,5.4047,5.4135,5.4222,5.4273,5.4337,5.4415,5.4532,5.4606,5.475,5.4864,5.4978,5.5033,5.5043,5.5046,5.5071,5.5065,5.5046,5.5062,5.4831,5.5041,5.5039,5.5038,5.5038,5.5037,5.3576,5.3661,5.3776,5.384,5.3896,5.3997,5.4066,5.4116,5.4186,5.4299,5.4366,5.4479,5.4574,5.4753,5.4821,5.4928,5.4934,5.5011,5.495,5.4941,5.4941,5.4937,5.4948,5.5023,5.5025,5.5026,5.5027,0,5.3485,5.3543,5.3685,5.3791,5.382,5.3907,5.3997,5.4077,5.4125,5.4241,5.4271,5.4346,5.4459,5.4514,5.4652,5.4678,5.4827,5.4827,5.4797,5.4801,5.4879,5.4873,5.5114,5.515,5.4958,5.4959,5.4961,0,5.3375,5.3483,5.3564,5.3644,5.3767,5.3814,5.3935,5.3988,5.4067,5.4159,5.4177,5.4263,5.4319,5.4413,5.4451,5.4581,5.4605,5.4634,5.4643,5.4635,5.4632,5.4674,5.4667,5.4655,5.4653,5.4652,5.4651,0,5.3229,5.3397,5.3526,5.3574,5.3695,5.3755,5.3808,5.3896,5.3961,5.4054,5.4098,5.4201,5.4259,5.434,5.4388,5.4345,5.4546,5.4497,5.4576,5.4575,5.4619,5.4616,5.4814,5.465,5.4649,5.4649,5.4649,0,5.3149,5.3242,5.3418,5.3521,5.3563,5.3647,5.3754,5.3838,5.3929,5.3958,5.4031,5.405,5.4164,5.4112,5.4273,5.4204,5.4261,5.4297,5.4304,5.432,5.4261,5.437,5.4549,5.4572,5.4333,5.433,5.4328,0,5.297,5.3161,5.3202,5.3368,5.3465,5.3481,5.3575,5.3654,5.37,5.3789,5.384,5.394,5.3912,5.3952,5.4023,5.408,5.4169,5.4069,5.4201,5.4205,5.4181,5.4346,5.436,5.4503,5.4294,5.4298,5.43,0,5.2837,5.2981,5.3007,5.3065,5.3175,5.3254,5.3361,5.347,5.3528,5.3612,5.3705,5.3844,5.3831,5.3893,5.3918,5.399,5.411,5.3965,5.3968,5.3993,5.428,5.4295,5.4319,5.4111,5.4115,5.4119,5.4274,0,5.2712,5.2813,5.2885,5.3005,5.3075,5.3179,5.3236,5.3302,5.332,5.3365,5.35,5.3576,5.3685,5.3724,5.374,5.3886,5.3871,5.3853,5.3808,5.3914,5.3967,5.3988,5.3725,5.3724,5.3723,5.3723,0,0,5.2527,5.2672,5.2711,5.2816,5.2877,5.289,5.2998,5.3058,5.3179,5.3222,5.3197,5.3404,5.3466,5.3623,5.3661,5.3703,5.3736,5.3694,5.3862,5.3878,5.3892,5.3948,5.3969,5.3721,5.3721,5.372,5.372,0,5.2494,5.2555,5.2659,5.2724,5.2821,5.2863,5.2888,5.2986,5.302,5.3149,5.3158,5.3245,5.3406,5.3473,5.3528,5.3677,5.3679,5.3705,5.3769,5.3851,5.3868,5.3883,5.394,5.396,5.3718,5.3718,5.3718,0,5.2376,5.2448,5.2503,5.2639,5.2702,5.2798,5.2765,5.2867,5.2939,5.2946,5.3074,5.3123,5.3215,5.3354,5.3418,5.3397,5.3625,5.356,5.3567,5.3576,5.3658,5.3678,5.3695,5.3465,5.3464,5.3463,0,0,5.2339,5.2431,5.2522,5.2635,5.2675,5.2738,5.2794,5.2817,5.2898,5.2931,5.2993,5.3073,5.3168,5.3229,5.332,5.3464,5.3488,5.3526,5.3539,5.3548,5.3562,5.3647,5.3666,5.3459,5.3459,5.3459,0,0,5.2321,5.2431,5.2434,5.2572,5.265,5.2747,5.2814,5.282,5.2908,5.2902,5.2944,5.2967,5.3097,5.3144,5.3083,5.3306,5.326,5.3275,5.3271,5.3286,5.3298,5.3285,5.3058,0,0,0,0,0,5.2315,5.2418,5.2419,5.2451,5.2621,5.2746,5.2768,5.2806,5.2774,5.2827,5.2881,5.2877,5.3121,5.3067,5.3098,5.3166,5.3406,5.3415,5.3424,5.3452,5.3468,5.3481,0,0,0,0,0,0,5.2328,5.2366,5.2417,5.2517,5.2555,5.2742,5.2697,5.271,5.2769,5.2767,5.2867,5.288,5.2914,5.3054,5.3081,5.3145,5.3049,5.3409,5.3417,5.3425,5.3457,5.3471,5.3482,0,0,0,0,0,5.2338,5.2368,5.2631,5.2516,5.2549,5.2624,5.2693,5.2704,5.275,5.2832,5.2845,5.2773,5.2915,5.294,5.307,5.3132,5.3031,5.3041,5.3414,5.3421,5.3426,5.3464,0,0,0,0,0,0,5.2345,5.2379,5.2639,5.2651,5.2479,5.2615,5.2637,5.2698,5.2812,5.2826,5.274,5.2737,5.2917,5.2936,5.2955,5.3126,5.3016,5.3026,5.3033,5.3419,5.3424,5.3429,0,0,0,0,0,0,5.2363,5.2389,5.2645,5.2596,5.2603,5.2606,5.2626,5.274,5.2813,5.2714,5.2715,5.2737,5.2888,5.2934,5.2949,5.3126,5.3005,5.3014,5.3021,5.3025,5.3423,5.3427,0,0,0,0,0,0,5.2375,5.2397,5.2594,5.2599,5.2604,5.2738,5.2707,5.2879,5.2772,5.2708,5.2764,5.276,5.2885,5.2901,5.2944,5.3115,5.3123,5.3005,5.3012,5.3016,5.3019,0,0,0,0,0,0,0,5.2384,5.2225,5.257,5.26,5.2605,5.2759,5.2762,5.2765,5.2772,5.2768,5.2765,5.2762,5.295,5.296,5.2971,5.3106,0,0,5.3004,5.3009,0,0,0,0,0,0,0,0,5.2217,5.2223,5.257,5.2572,5.2575,5.2759,5.2762,5.2764,5.2771,5.2768,5.2765,5.2763,5.2953,5.2961,5.297,0,0,0,0,0,0,0,0,0,0,0,0,0,0,0,5.257,5.2572,0,5.2759,5.2762,5.2764,5.2771,5.2768,5.2766,5.2764,5.2955,5.2962,5.2969,0,0,0,0,0,0,0,0,0,0,0,0,0,0,0,0,0,0,0,0,0,0,0,0,0,0,0,0,0,0,0,0,0,0,0,0,0,0,0,0,0,0,0,0,0,0,0,0,0,0,0,0,0,0,0,0,0,0,0,0,0,0,0,0,0,0,0,0,0]}]]]